Location: Caltech
(34.1382°N, 118.1253°W)
Time: 14:40:06
(UTC-07:00)

AO-Echo - Visible Passes

Search period start: 03 August 2015 00:00
Search period end: 13 August 2015 00:00
Orbit: 694 x 812 km, 98.3° (Epoch: 03 August)

Date Brightness Start Highest point End Pass type
(mag) Time Alt. Az. Time Alt. Az. Time Alt. Az.
03 Aug ? 02:23:37 10° NNE 02:26:15 31° NE 02:26:15 31° NE visible
03 Aug ? 04:04:28 10° NW 04:06:11 13° WNW 04:06:11 13° WNW visible
04 Aug ? 01:44:17 10° NE 01:45:21 14° ENE 01:45:21 14° ENE visible
04 Aug ? 03:22:21 10° N 03:25:17 28° NW 03:25:17 28° NW visible
05 Aug ? 02:41:37 10° NNE 02:44:23 35° NNE 02:44:23 35° NNE visible
06 Aug ? 02:01:45 10° NE 02:03:28 19° NE 02:03:28 19° NE visible
06 Aug ? 03:40:57 10° NNW 03:43:24 20° NW 03:43:24 20° NW visible
07 Aug ? 02:59:46 10° N 03:02:30 32° NNW 03:02:30 32° NNW visible
08 Aug ? 02:19:29 10° NNE 02:21:35 25° NE 02:21:35 25° NE visible
08 Aug ? 04:00:01 10° NW 04:01:31 13° NW 04:01:31 13° NW visible
09 Aug ? 01:40:19 10° NE 01:40:40 11° NE 01:40:40 11° NE visible
09 Aug ? 03:18:06 10° N 03:20:36 26° NNW 03:20:36 26° NNW visible
10 Aug ? 02:37:26 10° NNE 02:39:41 28° NNE 02:39:41 28° NNE visible
11 Aug ? 01:57:40 10° NE 01:58:47 16° NE 01:58:47 16° NE visible
11 Aug ? 03:36:38 10° NNW 03:38:43 19° NW 03:38:43 19° NW visible
12 Aug ? 02:55:33 10° N 02:57:48 27° N 02:57:48 27° N visible
